{"data":{"norad_id":65610,"epoch":"2026-05-25T03:19:44.760000Z","epoch_age_seconds":77138,"freshness":"FRESH","line1":"1 65610U 25207U   26145.13871250  .00008042  00000+0  56062-3 0  9994","line2":"2 65610  97.4478 213.6338 0001807 171.8370 188.2887 15.05661028 39769","mean_motion":15.05661028,"eccentricity":0.0001807,"inclination_deg":97.4478,"raan_deg":213.6338,"arg_perigee_deg":171.837,"mean_anomaly_deg":188.2887,"bstar":0.00056062,"rev_number":3976,"period_min":95.639056415824,"perigee_km":548.22550704003,"apogee_km":550.72914685779,"semimajor_km":6927.6143269489,"source":"CELESTRAK","updated_at":"2026-05-25T13:38:20.855942Z"}}